Regional Weather Roundup
Issued by NWS

Home | Current Version | Previous Version | Text Only | Print | Product List | Glossary Off
Versions: 1 2 3 4 5 6 7 8 9 10 11 12 13 14 15 16 17 18 19 20 21 22 23 24 25 26 27 28 29 30 31 32 33 34 35 36 37 38 39 40 41 42 43 44 45 46 47 48 49 50

000
ASUS43 KMKX 190711
RWRWI

WISCONSIN REGIONAL WEATHER ROUNDUP
NATIONAL WEATHER SERVICE MILWAUKEE/SULLIVAN WI
100 AM CST FRI DEC 19 2014

NOTE: "FAIR" INDICATES FEW OR NO CLOUDS BELOW 12,000 FEET WITH NO
SIGNIFICANT WEATHER AND/OR OBSTRUCTIONS TO VISIBILITY.

WIZ001-002-006>008-014>016-023>028-190800-
NORTHWEST WISCONSIN

CITY           SKY/WX    TMP DP  RH WIND       PRES   REMARKS
SUPERIOR ARPT  CLOUDY    23  20  89 SW6       30.27S WCI  16
ASHLAND        CLOUDY    21  18  88 SW5       30.28F WCI  15
HAYWARD        CLOUDY    22  19  89 SE6       30.24F WCI  14
SIREN          CLOUDY    23  19  87 S5        30.26S WCI  17
CUMBERLAND     CLOUDY    21  19  93 S5        30.25S WCI  15
RICE LAKE      CLOUDY    23  20  90 S5        30.28R WCI  17
CHETEK         CLOUDY    22  20  90 S6        30.26S WCI  15
LADYSMITH      CLOUDY    24  21  88 CALM      30.27S
EAU CLAIRE     CLOUDY    24  19  81 S3        30.27S
MENOMONIE      CLOUDY    25  20  83 S5        30.28S WCI  19
NEW RICHMOND   CLOUDY    22  19  89 S6        30.27S WCI  15
OSCEOLA        CLOUDY    23  19  83 SE7       30.30S WCI  14
$$

WIZ003>005-009-010-017-018-190800-
NORTH CENTRAL WISCONSIN

CITY           SKY/WX    TMP DP  RH WIND       PRES   REMARKS
MANITOWISH WTR PTCLDY     1  -2  88 CALM      30.22S
ARBOR VITAE    PTCLDY     5   2  85 CALM      30.22S
WOODRUFF       PTCLDY     5   2  85 CALM      30.22S
RHINELANDER    CLOUDY     4   2  91 CALM      30.22R FOG
EAGLE RIVER    PTCLDY     3  -1  81 CALM      30.21S
LAND O LAKES   PTCLDY    -3  -6  85 CALM      30.22S
PHILLIPS       CLOUDY    17  15  93 CALM      30.23S
TOMAHAWK       MOCLDY     4   2  88 CALM      30.24S
MEDFORD        CLOUDY    19  18  94 NE3       30.23S
MERRILL        PTCLDY    11   9  92 CALM      30.24S
$$

WIZ029-030-035-036-043>047-190800-
CENTRAL WISCONSIN

CITY           SKY/WX    TMP DP  RH WIND       PRES   REMARKS
WAUSAU         CLEAR     18  15  88 NW5       30.24R WCI  11
MOSINEE        CLEAR     18  18 100 NW5       30.26R WCI  11
MARSHFIELD     CLOUDY    24  20  84 CALM      30.25S
STEVENS POINT  CLEAR     11   9  89 CALM      30.26S
WAUPACA        CLEAR     19  16  89 CALM      30.27S
WAUTOMA        CLEAR     14  12  92 CALM      30.28S
WISC RAPIDS    CLOUDY    22  19  89 CALM      30.28S
CAMP DOUGLAS   CLOUDY    24  24  99 W5        30.27F WCI  19
$$

WIZ011>013-019>022-031-037>040-048>050-190800-
NORTHEAST WISCONSIN

CITY           SKY/WX    TMP DP  RH WIND       PRES   REMARKS
ANTIGO         PTCLDY     9   7  92 CALM      30.22S
SHAWANO        CLEAR     18  15  89 CALM      30.27R
OCONTO         CLEAR     16  15  98 CALM      30.26S
STURGEON BAY   CLEAR     21  16  79 NE6       30.25F WCI  14
GREEN BAY      PTCLDY    20  17  88 NW5       30.27R WCI  13
MANITOWOC      CLOUDY    24  21  88 W7        30.26S WCI  16
APPLETON       CLEAR     18  18 100 W7        30.26S WCI   8
CLINTONVILLE   CLEAR     18  14  86 CALM      30.26S
OSHKOSH        CLEAR     20  16  84 W5        30.26S WCI  13
$$

WIZ032>034-041-042-053>061-190800-
SOUTHWEST WISCONSIN

CITY           SKY/WX    TMP DP  RH WIND       PRES   REMARKS
LA CROSSE      CLOUDY    26  18  71 W3        30.29F
SPARTA         CLOUDY    25  20  82 CALM      30.29F
VIROQUA        CLOUDY    23  20  87 CALM      30.25S
BOSCOBEL       CLOUDY    26  19  74 CALM      30.29F
PRAIRIE DU CHI CLOUDY    26  17  68 CALM      30.29S
PLATTEVILLE    CLOUDY    25  20  83 CALM      30.28S
$$

WIZ056-057-062-063-064-067-068-190800-
SOUTH CENTRAL WISCONSIN

CITY           SKY/WX    TMP DP  RH WIND       PRES   REMARKS
REEDSBURG      CLOUDY    24  20  83 SW3       30.27F
BARABOO/DELLS  CLOUDY    25  20  82 CALM      30.27S
LONE ROCK      CLOUDY    29  19  66 CALM      30.29F
MINERAL POINT  CLOUDY    27  21  80 CALM      30.26S
MADISON        CLOUDY    26  20  77 CALM      30.27S
MIDDLETON      CLOUDY    28  21  78 CALM      30.27S
WATERTOWN      CLOUDY    26  23  89 NW3       30.26S
MONROE         CLOUDY    27  23  86 CALM      30.25S
JANESVILLE     CLOUDY    28  25  86 CALM      30.26F
$$

WIZ051-052-058>065-066-070>072-190800-
SOUTHEAST WISCONSIN

CITY           SKY/WX    TMP DP  RH WIND       PRES   REMARKS
MILWAUKEE      CLOUDY    28  20  71 W7        30.26S WCI  21
WAUKESHA       CLOUDY    27  21  80 W6        30.26F WCI  20
MILWAUKEE/TIMM CLOUDY    28  21  74 NW5       30.27S WCI  23
RACINE         CLOUDY    28  21  75 W7        30.27S WCI  21
BURLINGTON     CLOUDY    25  21  82 CALM      30.27R
KENOSHA        CLOUDY    28  23  81 W6        30.26S WCI  22
FOND DU LAC    CLEAR     18  14  84 CALM      30.26F
SHEBOYGAN      CLOUDY    24  18  77 NW6       30.25F WCI  17
WEST BEND      CLEAR     21  18  86 CALM      30.25S
JUNEAU         CLEAR     19  18  93 CALM      30.27S
$$

LSZ147-162-190800-
LAKE SUPERIOR

STATION/POSITION TIME  TEMP    WIND        PRES    WAVE
                       AIR SEA DIR/SP/G            HT/PER
                 (UTC) (F)     (DEG/KT/KT) (MB)    (FT/S)
DEVILS ISLAND    0700   26     190/  6/  8 1026.3F
PORT WING        0600   23      CALM  /  2 1025.4
SAXON HARBOR     0600   18        CALM     1025.4
$$

LMZ867-665-643>646-190800-
LAKE MICHIGAN

STATION/POSITION TIME  TEMP    WIND        PRES    WAVE
                       AIR SEA DIR/SP/G            HT/PER
                 (UTC) (F)     (DEG/KT/KT) (MB)    (FT/S)
CHAMBERS ISLAND  0600   27     340/ 10/ 11 1024.7F
NORTHPORT PIER   0603   27      30/  6/  9 1024.7F
SISTER BAY       0628           CALM  /  5   N/A
ALGOMA LAKESHORE 0614          330/  7/  9   N/A
KEWAUNEE LAKESHO 0600   20     300/  5/  7 1023.6F
SHEBOYGAN LAKESH 0700   25 34  290/ 10/ 11 1025.5F
PORT WASHINGTON  0640   26     320/  5/  9 1025.4F
MILWAUKEE LAKESH 0600   28     310/  7/  9   N/A
KENOSHA   LAKESH 0700   28     270/  8/ 11 1024.7S
$$

TC  - TEMPERATURE IN CELSIUS
VSB - VISIBILITY IN STATUTE MILES
WCI - WIND CHILL INDEX
HX  - HEAT INDEX




USA.gov is the U.S. government's official web portal to all federal, state and local government web resources and services.